Moncks Corner, SC

9:54 AM EST on December 15, 2017 (GMT -0500)
Moncks Corner

Weather History for KMKS - February, 2014

Change the Weather History Date:

Thursday, February 27, 2014

  Actual Average (KCHS) Record (KCHS)
Temperature  
Mean Temperature 48 °F -  
Max Temperature 60 °F 63 °F 84 °F (1962)
Min Temperature 35 °F 40 °F 22 °F (1967)
Degree Days  
Heating Degree Days 18    
Moisture  
Dew Point 38 °F    
Average Humidity 80    
Maximum Humidity 100    
Minimum Humidity 36    
Precipitation  
Precipitation 0.00 in - - ()
Sea Level Pressure  
Sea Level Pressure 29.88 in    
Wind  
Wind Speed 1 mph (WSW)    
Max Wind Speed 10 mph    
Max Gust Speed -    
Visibility 7 miles    
Events Snow    
Averages and records for this station are not official NWS values.
T = Trace of Precipitation, MM = Missing Value Source: NWS Daily Summary

Daily Weather History Graph

Daily Weather History Graph

Search for Another Location

Airport or City:

Trip Planner

Search our weather history database for the weather conditions in past years. The results will help you decide how hot, cold, wet, or windy it might be!

Date:

Astronomy

Feb. 27, 2014 Rise Set
Actual Time 6:50 AM EST 6:15 PM EST
Civil Twilight 6:25 AM EST 6:40 PM EST
Nautical Twilight 5:57 AM EST 7:09 PM EST
Astronomical Twilight 5:28 AM EST 7:37 PM EST
Moon 5:17 AM EST (2/27) 4:41 PM EST (2/27)
Length of Visible Light 12h 14m
Length of Day
11h 24m
Waning Crescent, 4% of the Moon is Illuminated
Feb 27
Waning Crescent
Mar 1
New
Mar 8
First Quarter
Mar 16
Full
Mar 23
Last Quarter

Hourly Weather History & Observations

Time (EST) Temp. Windchill Dew Point Humidity Pressure Visibility Wind Dir Wind Speed Gust Speed Precip Events Conditions
12:15 AM 41.0 °F - 39.2 °F 93% 29.86 in 10.0 mi Calm Calm - N/A   Overcast
12:35 AM 41.0 °F - 39.2 °F 93% 29.85 in 10.0 mi Calm Calm - N/A   Overcast
12:55 AM 41.0 °F - 39.2 °F 93% 29.85 in 7.0 mi Calm Calm - N/A   Scattered Clouds
1:15 AM 39.2 °F - 39.2 °F 100% 29.85 in 5.0 mi Calm Calm - N/A   Clear
1:35 AM 39.2 °F - 39.2 °F 100% 29.85 in 5.0 mi Calm Calm - N/A   Clear
1:55 AM 39.2 °F - 39.2 °F 100% 29.86 in 5.0 mi Calm Calm - N/A   Clear
2:15 AM 39.2 °F - 39.2 °F 100% 29.85 in 4.0 mi Calm Calm - N/A   Clear
2:35 AM 39.2 °F - 39.2 °F 100% 29.85 in 5.0 mi Calm Calm - N/A   Scattered Clouds
2:55 AM 39.2 °F - 39.2 °F 100% 29.85 in 1.5 mi Calm Calm - N/A   Overcast
3:15 AM 39.2 °F - 39.2 °F 100% 29.85 in 0.5 mi Calm Calm - N/A   Unknown
3:35 AM 37.4 °F - 37.4 °F 100% 29.85 in 0.5 mi Calm Calm - N/A Snow Light Snow
3:55 AM 37.4 °F - 37.4 °F 100% 29.85 in 5.0 mi Calm Calm - N/A   Scattered Clouds
4:15 AM 37.4 °F - 37.4 °F 100% 29.85 in 7.0 mi Calm Calm - N/A   Mostly Cloudy
4:35 AM 39.2 °F - 39.2 °F 100% 29.85 in 5.0 mi Calm Calm - N/A   Overcast
4:55 AM 37.4 °F - 37.4 °F 100% 29.85 in 2.5 mi Calm Calm - N/A   Mostly Cloudy
5:15 AM 37.4 °F - 37.4 °F 100% 29.85 in 5.0 mi Calm Calm - N/A   Overcast
5:35 AM 37.4 °F - 37.4 °F 100% 29.86 in 5.0 mi Calm Calm - N/A   Mostly Cloudy
5:55 AM 37.4 °F - 37.4 °F 100% 29.87 in 4.0 mi Calm Calm - N/A   Scattered Clouds
6:15 AM 37.4 °F - 37.4 °F 100% 29.87 in 4.0 mi Calm Calm - N/A   Scattered Clouds
6:35 AM 35.6 °F - 35.6 °F 100% 29.87 in 4.0 mi Calm Calm - N/A   Scattered Clouds
6:55 AM 37.4 °F - 37.4 °F 100% 29.88 in 3.0 mi Calm Calm - N/A   Scattered Clouds
7:15 AM 35.6 °F - 35.6 °F 100% 29.89 in 3.0 mi Calm Calm - N/A   Scattered Clouds
7:35 AM 35.6 °F - 35.6 °F 100% 29.89 in 2.5 mi Calm Calm - N/A   Scattered Clouds
7:55 AM 35.6 °F - 35.6 °F 100% 29.90 in 2.0 mi Calm Calm - N/A   Scattered Clouds
8:15 AM 35.6 °F - 35.6 °F 100% 29.90 in 1.2 mi Calm Calm - N/A   Mist
8:35 AM 37.4 °F - 37.4 °F 100% 29.91 in 0.8 mi Calm Calm - N/A   Mist
8:55 AM 39.2 °F - 39.2 °F 100% 29.92 in 3.0 mi Calm Calm - N/A   Clear
9:15 AM 41.0 °F - 41.0 °F 100% 29.92 in 5.0 mi Calm Calm - N/A   Clear
9:35 AM 42.8 °F - 41.0 °F 93% 29.92 in 7.0 mi Calm Calm - N/A   Clear
9:55 AM 44.6 °F - 41.0 °F 87% 29.91 in 7.0 mi Calm Calm - N/A   Scattered Clouds
10:15 AM 44.6 °F - 39.2 °F 81% 29.92 in 7.0 mi Calm Calm - N/A   Scattered Clouds
10:35 AM 46.4 °F 44.3 °F 39.2 °F 76% 29.92 in 7.0 mi WSW 4.6 mph - N/A   Scattered Clouds
10:55 AM 48.2 °F - 39.2 °F 71% 29.91 in 10.0 mi SW 4.6 mph - N/A   Clear
11:15 AM 50.0 °F - 39.2 °F 66% 29.91 in 7.0 mi SSW 5.8 mph - N/A   Clear
11:35 AM 51.8 °F - 41.0 °F 67% 29.90 in 7.0 mi West 3.5 mph - N/A   Clear
11:55 AM 51.8 °F - 41.0 °F 67% 29.90 in 10.0 mi SSW 6.9 mph - N/A   Clear
12:15 PM 51.8 °F - 41.0 °F 67% 29.89 in 7.0 mi SW 6.9 mph - N/A   Clear
12:35 PM 53.6 °F - 41.0 °F 62% 29.88 in 5.0 mi SW 10.4 mph - N/A   Haze
12:55 PM 53.6 °F - 39.2 °F 58% 29.87 in 7.0 mi WNW 3.5 mph - N/A   Clear
1:15 PM 55.4 °F - 41.0 °F 58% 29.87 in 10.0 mi SW 8.1 mph - N/A   Clear
1:35 PM 55.4 °F - 41.0 °F 58% 29.86 in 7.0 mi West 5.8 mph - N/A   Clear
1:55 PM 57.2 °F - 39.2 °F 51% 29.85 in 7.0 mi WSW 3.5 mph - N/A   Clear
2:15 PM 57.2 °F - 41.0 °F 55% 29.85 in 7.0 mi SW 9.2 mph - N/A   Clear
2:55 PM 59.0 °F - 37.4 °F 45% 29.84 in 7.0 mi WSW 6.9 mph - N/A   Clear
3:15 PM 59.0 °F - 39.2 °F 48% 29.83 in 7.0 mi West 5.8 mph - N/A   Clear
3:35 PM 59.0 °F - 37.4 °F 45% 29.83 in 10.0 mi SW 5.8 mph - N/A   Clear
3:55 PM 60.8 °F - 39.2 °F 45% 29.83 in 10.0 mi WSW 8.1 mph - N/A   Clear
4:15 PM 60.8 °F - 37.4 °F 42% 29.83 in 7.0 mi SW 5.8 mph - N/A   Clear
4:35 PM 60.8 °F - 37.4 °F 42% 29.83 in 7.0 mi SW 9.2 mph - N/A   Clear
4:55 PM 60.8 °F - 35.6 °F 39% 29.83 in 10.0 mi WSW 6.9 mph - N/A   Clear
5:15 PM 60.8 °F - 33.8 °F 36% 29.84 in 7.0 mi West 5.8 mph - N/A   Clear
5:35 PM 59.0 °F - 33.8 °F 39% 29.83 in 10.0 mi WNW 3.5 mph - N/A   Clear
5:55 PM 59.0 °F - 33.8 °F 39% 29.84 in 7.0 mi West 5.8 mph - N/A   Clear
6:15 PM 57.2 °F - 35.6 °F 44% 29.85 in 7.0 mi WSW 3.5 mph - N/A   Clear
6:35 PM 55.4 °F - 35.6 °F 47% 29.86 in 10.0 mi Calm Calm - N/A   Clear
6:55 PM 51.8 °F - 37.4 °F 58% 29.87 in 10.0 mi Calm Calm - N/A   Clear
7:15 PM 50.0 °F - 39.2 °F 66% 29.88 in 10.0 mi Calm Calm - N/A   Clear
7:35 PM 48.2 °F - 39.2 °F 71% 29.89 in 10.0 mi Calm Calm - N/A   Clear
7:55 PM 46.4 °F - 39.2 °F 76% 29.89 in 10.0 mi Calm Calm - N/A   Clear
8:15 PM 46.4 °F - 39.2 °F 76% 29.90 in 7.0 mi Calm Calm - N/A   Clear
8:35 PM 44.6 °F - 41.0 °F 87% 29.91 in 10.0 mi Calm Calm - N/A   Clear
8:55 PM 44.6 °F - 39.2 °F 81% 29.92 in 10.0 mi Calm Calm - N/A   Clear
9:15 PM 42.8 °F - 41.0 °F 93% 29.93 in 10.0 mi Calm Calm - N/A   Clear
9:35 PM 42.8 °F - 39.2 °F 87% 29.93 in 10.0 mi Calm Calm - N/A   Clear
9:55 PM 41.0 °F - 39.2 °F 93% 29.93 in 10.0 mi Calm Calm - N/A   Clear
10:15 PM 41.0 °F - 39.2 °F 93% 29.95 in 7.0 mi Calm Calm - N/A   Clear
10:35 PM 39.2 °F - 39.2 °F 100% 29.95 in 7.0 mi Calm Calm - N/A   Clear
10:55 PM 39.2 °F - 37.4 °F 93% 29.95 in 7.0 mi Calm Calm - N/A   Clear
11:15 PM 39.2 °F - 37.4 °F 93% 29.95 in 10.0 mi Calm Calm - N/A   Clear
11:35 PM 37.4 °F - 37.4 °F 100% 29.95 in 7.0 mi Calm Calm - N/A   Clear
11:55 PM 37.4 °F - 35.6 °F 93% 29.96 in 10.0 mi Calm Calm - N/A   Clear